Time,TemperatureF,DewpointF,PressureIn,WindDirection,WindDirectionDegrees,WindSpeedMPH,WindSpeedGustMPH,Humidity,HourlyPrecipIn,Conditions,Clouds,dailyrainin,SoftwareType,DateUTC
2013-08-01 19:06:00,73.2,72.6,29.98,NE,42,0.0,0.0,98,0.01,,,1.31,WUHU216DAVISVP2,2013-08-01 23:06:00,
2013-08-01 19:11:00,73.2,72.6,29.98,NE,42,0.0,0.0,98,0.01,,,1.31,WUHU216DAVISVP2,2013-08-01 23:11:00,
2013-08-01 19:16:00,73.2,72.9,29.98,NE,42,0.0,0.0,99,0.01,,,1.31,WUHU216DAVISVP2,2013-08-01 23:16:00,
2013-08-01 19:22:00,73.2,72.9,29.99,NE,42,0.0,0.0,99,0.01,,,1.31,WUHU216DAVISVP2,2013-08-01 23:22:00,
2013-08-01 19:27:00,73.3,73.0,29.98,NE,42,0.0,0.0,99,0.01,,,1.31,WUHU216DAVISVP2,2013-08-01 23:27:00,
2013-08-01 19:32:00,73.3,73.0,29.99,NE,42,0.0,0.0,99,0.00,,,1.31,WUHU216DAVISVP2,2013-08-01 23:32:00,
2013-08-01 19:37:00,73.5,73.2,29.98,NE,42,0.0,0.0,99,0.00,,,1.31,WUHU216DAVISVP2,2013-08-01 23:37:00,
2013-08-01 19:42:00,73.6,73.3,29.98,NE,42,0.0,0.0,99,0.00,,,1.31,WUHU216DAVISVP2,2013-08-01 23:42:00,
2013-08-01 19:47:00,73.6,73.3,29.98,NE,42,0.0,0.0,99,0.00,,,1.31,WUHU216DAVISVP2,2013-08-01 23:47:00,
2013-08-01 19:53:00,73.7,73.4,29.98,NE,42,0.0,0.0,99,0.00,,,1.31,WUHU216DAVISVP2,2013-08-01 23:53:00,
2013-08-01 19:58:00,73.6,73.3,29.97,NE,42,0.0,0.0,99,0.00,,,1.31,WUHU216DAVISVP2,2013-08-01 23:58:00,
2013-08-01 20:04:00,73.5,73.2,29.97,NE,42,0.0,0.0,99,0.00,,,1.31,WUHU216DAVISVP2,2013-08-02 00:04:00,
2013-08-01 20:09:00,73.5,73.2,29.98,NE,42,0.0,0.0,99,0.00,,,1.31,WUHU216DAVISVP2,2013-08-02 00:09:00,
2013-08-01 20:14:00,73.5,73.2,29.97,NE,42,0.0,0.0,99,0.00,,,1.31,WUHU216DAVISVP2,2013-08-02 00:14:00,
2013-08-01 20:19:00,73.5,73.2,29.97,NE,42,0.0,0.0,99,0.00,,,1.31,WUHU216DAVISVP2,2013-08-02 00:19:00,
2013-08-01 20:24:00,73.5,73.2,29.98,NE,42,0.0,0.0,99,0.00,,,1.31,WUHU216DAVISVP2,2013-08-02 00:24:00,
2013-08-01 20:29:00,73.5,73.2,29.97,NE,42,0.0,0.0,99,0.00,,,1.31,WUHU216DAVISVP2,2013-08-02 00:29:00,
2013-08-01 20:34:00,73.6,73.3,29.97,NE,42,0.0,0.0,99,0.00,,,1.31,WUHU216DAVISVP2,2013-08-02 00:34:00,
2013-08-01 20:39:00,73.6,73.3,29.97,NE,42,0.0,0.0,99,0.00,,,1.31,WUHU216DAVISVP2,2013-08-02 00:39:00,
2013-08-01 20:45:00,73.6,73.3,29.97,NE,42,0.0,0.0,99,0.00,,,1.31,WUHU216DAVISVP2,2013-08-02 00:45:00,
2013-08-01 20:50:00,73.6,73.3,29.98,NE,42,0.0,0.0,99,0.00,,,1.31,WUHU216DAVISVP2,2013-08-02 00:50:00,
2013-08-01 20:55:00,73.7,73.4,29.98,NE,42,0.0,0.0,99,0.00,,,1.31,WUHU216DAVISVP2,2013-08-02 00:55:00,
2013-08-01 21:00:00,73.7,73.4,29.98,NE,42,0.0,0.0,99,0.00,,,1.31,WUHU216DAVISVP2,2013-08-02 01:00:00,
2013-08-01 21:05:00,73.7,73.4,29.97,NE,42,0.0,0.0,99,0.00,,,1.31,WUHU216DAVISVP2,2013-08-02 01:05:00,
2013-08-01 21:11:00,73.8,73.5,29.97,NE,42,0.0,0.0,99,0.00,,,1.31,WUHU216DAVISVP2,2013-08-02 01:11:00,
2013-08-01 21:16:00,73.9,73.6,29.97,NE,42,0.0,0.0,99,0.00,,,1.31,WUHU216DAVISVP2,2013-08-02 01:16:00,
2013-08-01 21:21:00,74.0,73.7,29.97,NE,42,0.0,1.0,99,0.00,,,1.31,WUHU216DAVISVP2,2013-08-02 01:21:00,
2013-08-01 21:26:00,74.0,73.7,29.97,NE,42,0.0,1.0,99,0.00,,,1.31,WUHU216DAVISVP2,2013-08-02 01:26:00,
2013-08-01 21:31:00,74.0,73.7,29.97,NE,42,0.0,0.0,99,0.00,,,1.31,WUHU216DAVISVP2,2013-08-02 01:31:00,
2013-08-01 21:36:00,74.0,73.7,29.97,NE,42,0.0,0.0,99,0.00,,,1.31,WUHU216DAVISVP2,2013-08-02 01:36:00,
2013-08-01 21:41:00,74.0,73.7,29.97,NE,42,0.0,0.0,99,0.00,,,1.31,WUHU216DAVISVP2,2013-08-02 01:41:00,
2013-08-01 21:46:00,74.0,73.7,29.97,NE,42,0.0,0.0,99,0.00,,,1.31,WUHU216DAVISVP2,2013-08-02 01:46:00,
2013-08-01 21:52:00,74.0,73.7,29.97,NE,42,0.0,0.0,99,0.00,,,1.31,WUHU216DAVISVP2,2013-08-02 01:52:00,
2013-08-01 21:57:00,74.0,73.7,29.98,NE,42,0.0,0.0,99,0.00,,,1.31,WUHU216DAVISVP2,2013-08-02 01:57:00,
2013-08-01 22:02:00,74.0,73.7,29.98,NE,42,0.0,0.0,99,0.00,,,1.31,WUHU216DAVISVP2,2013-08-02 02:02:00,
2013-08-01 22:07:00,74.1,73.8,29.98,NE,42,0.0,0.0,99,0.00,,,1.31,WUHU216DAVISVP2,2013-08-02 02:07:00,
2013-08-01 22:13:00,74.1,73.8,29.98,NE,42,0.0,1.0,99,0.00,,,1.31,WUHU216DAVISVP2,2013-08-02 02:13:00,
2013-08-01 22:18:00,74.1,73.8,29.98,NE,42,0.0,1.0,99,0.00,,,1.31,WUHU216DAVISVP2,2013-08-02 02:18:00,
2013-08-01 22:23:00,74.1,73.8,29.98,NE,42,0.0,0.0,99,0.00,,,1.31,WUHU216DAVISVP2,2013-08-02 02:23:00,
2013-08-01 22:28:00,74.1,73.8,29.98,NE,42,0.0,0.0,99,0.00,,,1.31,WUHU216DAVISVP2,2013-08-02 02:28:00,
2013-08-01 22:33:00,74.0,73.7,29.99,NE,42,0.0,0.0,99,0.00,,,1.31,WUHU216DAVISVP2,2013-08-02 02:33:00,
2013-08-01 22:38:00,74.0,73.7,29.99,NE,42,0.0,0.0,99,0.00,,,1.31,WUHU216DAVISVP2,2013-08-02 02:38:00,
2013-08-01 22:43:00,74.0,73.7,29.98,NE,42,0.0,0.0,99,0.00,,,1.31,WUHU216DAVISVP2,2013-08-02 02:43:00,
2013-08-01 22:48:00,74.0,73.7,29.98,NE,42,0.0,0.0,99,0.01,,,1.32,WUHU216DAVISVP2,2013-08-02 02:48:00,
2013-08-01 22:53:00,73.9,73.6,29.99,NE,36,0.0,1.0,99,0.01,,,1.32,WUHU216DAVISVP2,2013-08-02 02:53:00,
2013-08-01 22:58:00,73.9,73.6,29.99,NE,36,0.0,1.0,99,0.01,,,1.32,WUHU216DAVISVP2,2013-08-02 02:58:00,
2013-08-01 23:04:00,73.8,73.5,29.99,NE,36,0.0,0.0,99,0.01,,,1.32,WUHU216DAVISVP2,2013-08-02 03:04:00,
2013-08-01 23:09:00,73.7,73.4,29.99,NE,36,0.0,0.0,99,0.01,,,1.32,WUHU216DAVISVP2,2013-08-02 03:09:00,
2013-08-01 23:14:00,73.7,73.4,30.00,NE,36,0.0,0.0,99,0.01,,,1.32,WUHU216DAVISVP2,2013-08-02 03:14:00,
2013-08-01 23:19:00,73.6,73.3,30.00,NE,36,0.0,0.0,99,0.01,,,1.32,WUHU216DAVISVP2,2013-08-02 03:19:00,
2013-08-01 23:24:00,73.5,73.2,30.00,NE,36,0.0,0.0,99,0.01,,,1.32,WUHU216DAVISVP2,2013-08-02 03:24:00,
2013-08-01 23:29:00,73.5,73.2,30.00,NE,36,0.0,0.0,99,0.01,,,1.32,WUHU216DAVISVP2,2013-08-02 03:29:00,
2013-08-01 23:35:00,73.4,73.1,30.01,NE,36,0.0,0.0,99,0.01,,,1.32,WUHU216DAVISVP2,2013-08-02 03:35:00,
2013-08-01 23:40:00,73.4,73.1,30.00,NE,36,0.0,0.0,99,0.01,,,1.32,WUHU216DAVISVP2,2013-08-02 03:40:00,
2013-08-01 23:45:00,73.3,73.0,30.01,NE,36,0.0,0.0,99,0.00,,,1.32,WUHU216DAVISVP2,2013-08-02 03:45:00,
2013-08-01 23:50:00,73.3,73.0,30.00,NE,36,0.0,0.0,99,0.00,,,1.32,WUHU216DAVISVP2,2013-08-02 03:50:00,
2013-08-01 23:55:00,73.4,73.1,30.00,NE,36,0.0,0.0,99,0.00,,,1.32,WUHU216DAVISVP2,2013-08-02 03:55:00,